Aérodrome :
LOGIN :

S'inscrire | Disclaimer

   EN    FR    IT 

 










Légende :    VFR   VFR Marginal   IFR   IFR Intensif   IFR Très Intensif
Visi : 
Plafond : 
>= 8 km
>= 3000ft
5 à 8 km
1000 à 3000 ft
1500m à 5 km
500 à 1000 ft
800 à 1500m
200 à 500 ft
< 800m
< 200 ft
Symboles :   Orages  Brouillard  Fortes neiges  Fortes précipitations  Vent > 20 kt
SIGMETs :   Divers  Orages  Givrage  Turbulence  Onde Orograph.  Cendres Volcan.







- Altitude de l'aérodrome : 3368 ft


LSGC - Les Eplatures

DERNIER METAR :
  • 191820Z AUTO VRB02KT 9999 NCD 13/08 Q1024

METARs EXPIRÉS :
  • 191750Z 31004KT 250V020 9999 SCT035 14/08 Q1023
  • 191720Z VRB02KT 9999 SCT045 14/08 Q1023
  • 191650Z 36007KT 270V050 9999 SCT035 15/08 Q1023
  • 191620Z VRB03KT 9999 SCT030 15/08 Q1023
  • 191550Z AUTO 36004KT 310V060 9999 SCT042 15/09 Q1023

TAF TAF LSGC
Valide du 19 à 15h jusqu'au 20 à 00h UTC


191425Z 1915/1924 30008KT 9999 SCT030
BECMG 1920/1922 CAVOK
Pas de NOTAMs connus pour ce terrain.



MET'MAP, la Météo Aéronautique d'un coup d'oeil ! - Copyright ORBIFLY Décembre 2007 - Disclaimer

ORBIFLY MET'MAP TEAM :

Programmation & Développement : Alexandra Zaïnal
Conception & Développement : Baudouin d'Aumeries
Co-Programmation & Développement : Marc-Olivier Méhu
Soutien technique & logistique : Manuel Goepfert

Contact : metmap@orbifly.com




SOURCES & CREDITS :

   NOAA